Regional Weather Roundup
Issued by NWS

Home | Current Version | Previous Version | Text Only | Print | Product List | Glossary Off
Versions: 1 2 3 4 5 6 7 8 9 10 11 12 13 14 15 16 17 18 19 20 21 22 23 24 25 26 27 28 29 30 31 32 33 34 35 36 37 38 39 40 41 42 43 44 45 46 47 48 49 50

902
ASUS45 KABQ 290310
RWRNM
NEW MEXICO REGIONAL WEATHER ROUNDUP
NATIONAL WEATHER SERVICE ALBUQUERQUE NM
900 PM MDT SUN MAY 28 2017

NOTE: "FAIR" MEANS FEW OR NO CLOUDS BELOW 12,000 FEET AGL WITH NO
       SIGNIFICANT WEATHER OR OBSTRUCTIONS TO VISION.

      THIS PRODUCT IS RELEASED AS TWO VERSIONS.  ONE VERSION NEAR
      THE TOP OF THE HOUR CONTAINING PRELIMINARY DATA FROM ALBUQUERQUE
      AND OTHER STATIONS.  A FINAL VERSION WITH ADDITIONAL DATA IS
      ISSUED ABOUT 10 MINUTES AFTER THE HOUR.

NMZ501-503-504-510>518-290400-
NORTHWEST PLATEAU/NORTHCENTRAL MOUNTAINS

CITY           SKY/WX    TMP DP  RH WIND       PRES   REMARKS
FARMINGTON     FAIR      67  12  12 W3        30.14R
LOS ALAMOS     FAIR      61  26  26 W9        30.27R
SANTA FE       FAIR      65  28  24 SE9       30.21R
TAOS           FAIR      55  21  26 E9        30.26S
ANGEL FIRE     FAIR      48  32  54 S7        30.37R

$$
NMZ402-403-502-505>509-290400-
WESTCENTRAL MOUNTAINS/SOUTHWEST MOUNTAINS

CITY           SKY/WX    TMP DP  RH WIND       PRES   REMARKS
GALLUP         FAIR      64  21  19 NE7       30.20R
GRANTS         MOCLDY    64  32  30 S14G24    30.24S
SILVER CITY    FAIR      68  22  17 E7        30.11R

$$
NMZ407-409-411-412-290400-
SOUTHERN DESERTS

CITY           SKY/WX    TMP DP  RH WIND       PRES   REMARKS
DEMING         FAIR      74  25  16 E7        30.04R
LAS CRUCES     FAIR      77  30  18 SE8       30.08R
HOLLOMAN AFB   FAIR      78  36  21 SE9       30.09R
ALAMOGORDO     FAIR      77  34  20 E8G21     30.06R
T OR C         FAIR      77  20  12 SE5       30.06S

$$
NMZ519>523-290400-
CENTRAL VALLEYS/CENTRAL HIGHLANDS

CITY           SKY/WX    TMP DP  RH WIND       PRES   REMARKS
ALBUQUERQUE    FAIR      75  26  16 SW13      30.15R
DOUBLE EAGLE   PTCLDY    63  30  29 S7        30.18S
MORIARTY ARPT  FAIR      66  31  27 SE14      30.23S
CLINES CORNERS FAIR      58  28  32 SE12      30.28R
BELEN          FAIR      69  34  27 SE18G31   30.15F
SOCORRO        FAIR      70  33  25 NW16G22   30.15R

$$
NMZ524>526-539-540-290400-
SOUTHCENTRAL MOUNTAINS

CITY           SKY/WX    TMP DP  RH WIND       PRES   REMARKS
RUIDOSO        FAIR      59  32  36 SE9       30.30S

$$
NMZ527>531-290400-
NORTHEAST HIGHLANDS/NORTHEAST PLAINS

CITY           SKY/WX    TMP DP  RH WIND       PRES   REMARKS
LAS VEGAS      FAIR      50  34  54 SE12      30.30R
RATON          FAIR      54  33  45 SW6       30.25R
CLAYTON        FAIR      56  37  49 E7        30.21R

$$
NMZ532>537-290400-
EASTCENTRAL PLAINS

CITY           SKY/WX    TMP DP  RH WIND       PRES   REMARKS
SANTA ROSA     FAIR      64  32  30 E10       30.17R
TUCUMCARI      FAIR      63  35  35 E8        30.14R
CANNON AFB     FAIR      65  33  31 E9        30.18R
CLOVIS AIRPORT FAIR      61  34  36 E9        30.18R

$$
NMZ028-029-538-290400-
SOUTHEAST PLAINS

CITY           SKY/WX    TMP DP  RH WIND       PRES   REMARKS
ROSWELL        FAIR      75  39  27 E7        30.10R
ARTESIA        FAIR      75  39  27 E5        30.09R
CARLSBAD       FAIR      76  43  30 SE7       30.06R
HOBBS          FAIR      72  39  30 E8        30.13R


$$




USA.gov is the U.S. government's official web portal to all federal, state and local government web resources and services.